When you browse on this site, cookies collect data to enhance your experience and personalize the content and advertising you see.
Visit our Privacy Policy to learn more. By continuing to use the site, you agree to this use of cookies and data.

Stündliche Wetter Oroshaza

Heute, 22 September, Dienstag

Zeit Temperatur Niederschläge Wind Luftdruck Luftfeuchtigkeit
00:00 +18°C° 0 mm 1 m/S 755 mmHg 49%
01:00 +18°C° 0 mm 1 m/S 756 mmHg 52%
02:00 +18°C° 0 mm 1 m/S 755 mmHg 53%
03:00 +16°C° 0 mm 1 m/S 755 mmHg 54%
04:00 +15°C° 0 mm 0 m/S 755 mmHg 56%
05:00 +18°C° 0 mm 1 m/S 755 mmHg 54%
06:00 +19°C° 0 mm 1 m/S 755 mmHg 51%
07:00 +20°C° 0 mm 1 m/S 756 mmHg 47%
08:00 +21°C° 0 mm 2 m/S 755 mmHg 42%
09:00 +24°C° 0 mm 2 m/S 755 mmHg 37%
10:00 +27°C° 0 mm 3 m/S 755 mmHg 32%
11:00 +28°C° 0 mm 3 m/S 755 mmHg 30%
12:00 +29°C° 0 mm 3 m/S 754 mmHg 28%
13:00 +30°C° 0 mm 3 m/S 754 mmHg 26%
14:00 +30°C° 0 mm 3 m/S 753 mmHg 26%
15:00 +30°C° 0 mm 3 m/S 753 mmHg 26%
16:00 +30°C° 0 mm 3 m/S 752 mmHg 26%
17:00 +28°C° 0 mm 3 m/S 752 mmHg 31%
18:00 +26°C° 0 mm 3 m/S 752 mmHg 35%
19:00 +24°C° 0 mm 3 m/S 752 mmHg 39%
20:00 +22°C° 0 mm 3 m/S 752 mmHg 41%
21:00 +21°C° 0 mm 3 m/S 752 mmHg 43%
22:00 +21°C° 0 mm 3 m/S 752 mmHg 45%
23:00 +20°C° 0 mm 3 m/S 752 mmHg 45%

Morgen, 23 September, Mittwoch

Zeit Temperatur Niederschläge Wind Luftdruck Luftfeuchtigkeit
00:00 +20°C° 0 mm 3 m/S 752 mmHg 46%
01:00 +19°C° 0 mm 3 m/S 752 mmHg 47%
02:00 +19°C° 0 mm 3 m/S 751 mmHg 48%
03:00 +18°C° 0 mm 3 m/S 751 mmHg 48%
04:00 +18°C° 0 mm 3 m/S 751 mmHg 49%
05:00 +19°C° 0 mm 3 m/S 751 mmHg 47%
06:00 +20°C° 0 mm 4 m/S 751 mmHg 44%
07:00 +20°C° 0 mm 4 m/S 751 mmHg 42%
08:00 +22°C° 0 mm 4 m/S 751 mmHg 40%
09:00 +25°C° 0 mm 5 m/S 751 mmHg 37%
10:00 +27°C° 0 mm 5 m/S 751 mmHg 34%
11:00 +28°C° 0 mm 5 m/S 750 mmHg 33%
12:00 +29°C° 0 mm 4 m/S 750 mmHg 33%
13:00 +32°C° 0 mm 4 m/S 750 mmHg 32%
14:00 +30°C° 0.2 mm 4 m/S 749 mmHg 36%
15:00 +28°C° 0.2 mm 4 m/S 749 mmHg 40%
16:00 +27°C° 0.2 mm 3 m/S 748 mmHg 44%
17:00 +26°C° 0.5 mm 3 m/S 748 mmHg 52%
18:00 +24°C° 0.5 mm 2 m/S 748 mmHg 60%
19:00 +21°C° 0.5 mm 2 m/S 749 mmHg 68%
20:00 +21°C° 0.2 mm 2 m/S 749 mmHg 69%
21:00 +21°C° 0.2 mm 2 m/S 749 mmHg 70%
22:00 +20°C° 0.2 mm 2 m/S 749 mmHg 70%
23:00 +20°C° 0.2 mm 2 m/S 749 mmHg 73%

übermorgen, 24 September, Donnerstag

Zeit Temperatur Niederschläge Wind Luftdruck Luftfeuchtigkeit
00:00 +19°C° 0.2 mm 2 m/S 749 mmHg 76%
01:00 +18°C° 0.2 mm 2 m/S 749 mmHg 79%
02:00 +18°C° 0 mm 2 m/S 749 mmHg 80%
03:00 +18°C° 0 mm 2 m/S 749 mmHg 82%
04:00 +17°C° 0 mm 2 m/S 749 mmHg 83%
05:00 +18°C° 0 mm 2 m/S 750 mmHg 80%
06:00 +18°C° 0 mm 2 m/S 750 mmHg 78%
07:00 +19°C° 0 mm 2 m/S 750 mmHg 75%
08:00 +21°C° 0 mm 3 m/S 750 mmHg 67%
09:00 +24°C° 0 mm 3 m/S 750 mmHg 60%
10:00 +26°C° 0 mm 3 m/S 750 mmHg 52%
11:00 +26°C° 0 mm 3 m/S 750 mmHg 49%
12:00 +27°C° 0 mm 4 m/S 750 mmHg 46%
13:00 +28°C° 0 mm 4 m/S 750 mmHg 43%
14:00 +28°C° 0 mm 3 m/S 750 mmHg 43%
15:00 +28°C° 0 mm 3 m/S 749 mmHg 43%
16:00 +28°C° 0 mm 2 m/S 749 mmHg 43%
17:00 +27°C° 0 mm 2 m/S 749 mmHg 46%
18:00 +26°C° 0 mm 1 m/S 749 mmHg 48%
19:00 +25°C° 0 mm 1 m/S 749 mmHg 51%
20:00 +24°C° 0 mm 2 m/S 749 mmHg 52%
21:00 +23°C° 0 mm 2 m/S 749 mmHg 54%
22:00 +23°C° 0 mm 2 m/S 749 mmHg 55%
23:00 +21°C° 0 mm 2 m/S 749 mmHg 56%

25 September, Freitag

Zeit Temperatur Niederschläge Wind Luftdruck Luftfeuchtigkeit
00:00 +21°C° 0 mm 3 m/S 749 mmHg 58%
01:00 +20°C° 0 mm 3 m/S 748 mmHg 60%
02:00 +20°C° 0 mm 3 m/S 748 mmHg 61%
03:00 +20°C° 0 mm 3 m/S 748 mmHg 63%
04:00 +19°C° 0 mm 3 m/S 747 mmHg 65%
05:00 +20°C° 0 mm 3 m/S 747 mmHg 63%
06:00 +20°C° 0 mm 4 m/S 747 mmHg 61%
07:00 +21°C° 0 mm 4 m/S 746 mmHg 58%
08:00 +22°C° 0 mm 5 m/S 746 mmHg 53%
09:00 +25°C° 0 mm 5 m/S 746 mmHg 47%
10:00 +27°C° 0 mm 6 m/S 745 mmHg 42%
11:00 +28°C° 0 mm 6 m/S 745 mmHg 37%
12:00 +29°C° 0 mm 7 m/S 744 mmHg 33%
13:00 +32°C° 0 mm 7 m/S 743 mmHg 28%
14:00 +29°C° 0 mm 5 m/S 743 mmHg 35%
15:00 +27°C° 0 mm 3 m/S 742 mmHg 43%
16:00 +25°C° 0 mm 1 m/S 741 mmHg 50%
17:00 +24°C° 0.4 mm 2 m/S 741 mmHg 53%
18:00 +24°C° 0.4 mm 3 m/S 741 mmHg 56%
19:00 +22°C° 0.4 mm 3 m/S 741 mmHg 59%
20:00 +22°C° 0.6 mm 4 m/S 740 mmHg 64%
21:00 +21°C° 0.6 mm 5 m/S 740 mmHg 70%
22:00 +20°C° 0.6 mm 6 m/S 740 mmHg 75%
23:00 +20°C° 0.3 mm 6 m/S 739 mmHg 78%

26 September, Samstag

Zeit Temperatur Niederschläge Wind Luftdruck Luftfeuchtigkeit
00:00 +20°C° 0.3 mm 5 m/S 738 mmHg 80%
01:00 +19°C° 0.3 mm 5 m/S 738 mmHg 83%
02:00 +19°C° 0.7 mm 5 m/S 738 mmHg 82%
03:00 +19°C° 0.7 mm 5 m/S 737 mmHg 81%
04:00 +20°C° 0.7 mm 5 m/S 737 mmHg 80%
05:00 +19°C° 0.7 mm 5 m/S 737 mmHg 80%
06:00 +19°C° 0.7 mm 6 m/S 737 mmHg 81%
07:00 +19°C° 0.7 mm 6 m/S 738 mmHg 82%
08:00 +17°C° 1 mm 5 m/S 738 mmHg 80%
09:00 +17°C° 1 mm 4 m/S 738 mmHg 77%
10:00 +16°C° 1 mm 3 m/S 738 mmHg 75%
11:00 +17°C° 0.1 mm 3 m/S 738 mmHg 70%
12:00 +18°C° 0.1 mm 3 m/S 738 mmHg 65%
13:00 +19°C° 0.1 mm 3 m/S 737 mmHg 60%
14:00 +18°C° 1.7 mm 4 m/S 737 mmHg 67%
15:00 +15°C° 1.7 mm 5 m/S 737 mmHg 75%
16:00 +14°C° 1.7 mm 6 m/S 736 mmHg 82%
17:00 +12°C° 3.9 mm 7 m/S 736 mmHg 85%
18:00 +11°C° 3.9 mm 7 m/S 736 mmHg 87%
19:00 +10°C° 3.9 mm 8 m/S 736 mmHg 89%
20:00 +10°C° 1.8 mm 7 m/S 737 mmHg 88%
21:00 +9°C° 1.8 mm 7 m/S 737 mmHg 86%
22:00 +9°C° 1.8 mm 7 m/S 737 mmHg 84%
23:00 +9°C° 0.2 mm 7 m/S 737 mmHg 81%

27 September, Sonntag

Zeit Temperatur Niederschläge Wind Luftdruck Luftfeuchtigkeit
00:00 +9°C° 0.2 mm 6 m/S 738 mmHg 79%
01:00 +9°C° 0.2 mm 6 m/S 738 mmHg 77%
02:00 +9°C° 0.6 mm 6 m/S 739 mmHg 78%
03:00 +9°C° 0.6 mm 7 m/S 739 mmHg 79%
04:00 +9°C° 0.6 mm 8 m/S 740 mmHg 80%
05:00 +9°C° 0.5 mm 8 m/S 740 mmHg 81%
06:00 +9°C° 0.5 mm 8 m/S 740 mmHg 81%
07:00 +9°C° 0.5 mm 8 m/S 741 mmHg 81%
08:00 +9°C° 0.2 mm 8 m/S 741 mmHg 76%
09:00 +10°C° 0.2 mm 8 m/S 742 mmHg 71%
10:00 +10°C° 0.2 mm 8 m/S 742 mmHg 66%
11:00 +11°C° 0 mm 7 m/S 743 mmHg 63%
12:00 +13°C° 0 mm 6 m/S 744 mmHg 59%
13:00 +14°C° 0 mm 5 m/S 744 mmHg 56%
14:00 +14°C° 0 mm 4 m/S 744 mmHg 55%
15:00 +16°C° 0 mm 3 m/S 745 mmHg 54%
16:00 +16°C° 0 mm 3 m/S 745 mmHg 53%
17:00 +15°C° 0 mm 2 m/S 745 mmHg 57%
18:00 +14°C° 0 mm 2 m/S 745 mmHg 60%
19:00 +13°C° 0 mm 2 m/S 746 mmHg 64%
20:00 +13°C° 0 mm 2 m/S 746 mmHg 69%
21:00 +12°C° 0 mm 2 m/S 746 mmHg 73%
22:00 +10°C° 0 mm 2 m/S 747 mmHg 78%
23:00 +10°C° 0 mm 2 m/S 747 mmHg 78%
Mehr zeigen